When you browse on this site, cookies collect data to enhance your experience and personalize the content and advertising you see.
Visit our Privacy Policy to learn more. By continuing to use the site, you agree to this use of cookies and data.
  • en Suisse
  • Liste des pays
  • À 7 jours
  • Température de l'eau
  • Carte satellitaire
  • Carte météo
  • Widgets météo
  • user-avatar
    Se connecter

    Météo par heure à Plaskivshchyna

    Ce jour, 25 Avril, Jeudi

    Heure Température Précipitation Vent Pression Humidité
    00:00 +14°C° 0 mm 1 m/s 760 mmHg 51%
    01:00 +14°C° 0 mm 1 m/s 760 mmHg 52%
    02:00 +14°C° 0 mm 1 m/s 760 mmHg 52%
    03:00 +13°C° 0 mm 1 m/s 760 mmHg 54%
    04:00 +13°C° 0 mm 2 m/s 760 mmHg 55%
    05:00 +12°C° 0 mm 2 m/s 760 mmHg 57%
    06:00 +14°C° 0 mm 2 m/s 760 mmHg 54%
    07:00 +16°C° 0 mm 2 m/s 760 mmHg 51%
    08:00 +19°C° 0 mm 1 m/s 760 mmHg 48%
    09:00 +20°C° 0 mm 1 m/s 760 mmHg 44%
    10:00 +22°C° 0 mm 1 m/s 760 mmHg 41%
    11:00 +22°C° 0 mm 0 m/s 760 mmHg 38%
    12:00 +24°C° 0 mm 1 m/s 760 mmHg 36%
    13:00 +24°C° 0 mm 1 m/s 760 mmHg 33%
    14:00 +24°C° 0 mm 1 m/s 759 mmHg 31%
    15:00 +24°C° 0 mm 1 m/s 759 mmHg 35%
    16:00 +23°C° 0 mm 1 m/s 759 mmHg 38%
    17:00 +23°C° 0 mm 1 m/s 759 mmHg 42%
    18:00 +21°C° 0 mm 1 m/s 758 mmHg 43%
    19:00 +20°C° 0 mm 1 m/s 758 mmHg 45%
    20:00 +18°C° 0 mm 2 m/s 758 mmHg 47%
    21:00 +17°C° 0 mm 2 m/s 758 mmHg 47%
    22:00 +17°C° 0 mm 2 m/s 758 mmHg 48%
    23:00 +17°C° 0 mm 2 m/s 758 mmHg 48%

    Demain, 26 Avril, Vendredi

    Heure Température Précipitation Vent Pression Humidité
    00:00 +17°C° 0 mm 2 m/s 758 mmHg 49%
    01:00 +16°C° 0 mm 2 m/s 758 mmHg 49%
    02:00 +16°C° 0 mm 2 m/s 758 mmHg 50%
    03:00 +16°C° 0 mm 1 m/s 758 mmHg 52%
    04:00 +16°C° 0 mm 1 m/s 758 mmHg 53%
    05:00 +16°C° 0 mm 1 m/s 757 mmHg 55%
    06:00 +18°C° 0 mm 1 m/s 757 mmHg 55%
    07:00 +18°C° 0 mm 1 m/s 757 mmHg 55%
    08:00 +18°C° 0 mm 2 m/s 757 mmHg 55%
    09:00 +20°C° 0 mm 2 m/s 757 mmHg 49%
    10:00 +21°C° 0 mm 2 m/s 757 mmHg 44%
    11:00 +23°C° 0 mm 2 m/s 757 mmHg 38%
    12:00 +23°C° 0 mm 2 m/s 757 mmHg 39%
    13:00 +23°C° 0 mm 2 m/s 756 mmHg 40%
    14:00 +23°C° 0 mm 2 m/s 756 mmHg 41%
    15:00 +23°C° 0 mm 2 m/s 756 mmHg 42%
    16:00 +23°C° 0 mm 2 m/s 755 mmHg 43%
    17:00 +23°C° 0 mm 2 m/s 755 mmHg 44%
    18:00 +20°C° 0 mm 2 m/s 755 mmHg 47%
    19:00 +19°C° 0 mm 2 m/s 755 mmHg 50%
    20:00 +17°C° 0 mm 2 m/s 755 mmHg 52%
    21:00 +16°C° 0 mm 2 m/s 755 mmHg 52%
    22:00 +15°C° 0 mm 1 m/s 755 mmHg 51%
    23:00 +15°C° 0 mm 1 m/s 754 mmHg 51%

    Après-demain, 27 Avril, Samedi

    Heure Température Précipitation Vent Pression Humidité
    00:00 +14°C° 0 mm 2 m/s 754 mmHg 51%
    01:00 +13°C° 0 mm 2 m/s 754 mmHg 52%
    02:00 +13°C° 0 mm 2 m/s 754 mmHg 52%
    03:00 +12°C° 0 mm 2 m/s 754 mmHg 55%
    04:00 +12°C° 0 mm 2 m/s 754 mmHg 59%
    05:00 +12°C° 0 mm 2 m/s 753 mmHg 62%
    06:00 +13°C° 0 mm 2 m/s 753 mmHg 59%
    07:00 +14°C° 0 mm 3 m/s 753 mmHg 56%
    08:00 +17°C° 0 mm 3 m/s 753 mmHg 52%
    09:00 +18°C° 0 mm 4 m/s 753 mmHg 48%
    10:00 +19°C° 0 mm 5 m/s 753 mmHg 44%
    11:00 +21°C° 0 mm 6 m/s 752 mmHg 39%
    12:00 +21°C° 0 mm 6 m/s 752 mmHg 40%
    13:00 +22°C° 0 mm 6 m/s 752 mmHg 40%
    14:00 +22°C° 0 mm 6 m/s 751 mmHg 40%
    15:00 +22°C° 0 mm 5 m/s 751 mmHg 44%
    16:00 +21°C° 0 mm 4 m/s 750 mmHg 47%
    17:00 +21°C° 0 mm 3 m/s 750 mmHg 51%
    18:00 +20°C° 0 mm 3 m/s 750 mmHg 54%
    19:00 +19°C° 0 mm 3 m/s 750 mmHg 58%
    20:00 +18°C° 0 mm 2 m/s 750 mmHg 61%
    21:00 +17°C° 0 mm 3 m/s 749 mmHg 62%
    22:00 +16°C° 0 mm 3 m/s 749 mmHg 63%
    23:00 +16°C° 0 mm 3 m/s 749 mmHg 64%

    28 Avril, Dimanche

    Heure Température Précipitation Vent Pression Humidité
    00:00 +14°C° 0 mm 3 m/s 749 mmHg 65%
    01:00 +13°C° 0 mm 3 m/s 749 mmHg 67%
    02:00 +13°C° 0 mm 3 m/s 749 mmHg 68%
    03:00 +12°C° 0 mm 3 m/s 749 mmHg 70%
    04:00 +12°C° 0 mm 3 m/s 749 mmHg 71%
    05:00 +11°C° 0 mm 3 m/s 749 mmHg 73%
    06:00 +13°C° 0 mm 4 m/s 749 mmHg 68%
    07:00 +14°C° 0 mm 4 m/s 749 mmHg 63%
    08:00 +15°C° 0 mm 4 m/s 749 mmHg 58%
    09:00 +18°C° 0 mm 4 m/s 749 mmHg 52%
    10:00 +19°C° 0 mm 4 m/s 749 mmHg 46%
    11:00 +20°C° 0 mm 4 m/s 749 mmHg 40%
    12:00 +21°C° 0 mm 4 m/s 748 mmHg 39%
    13:00 +22°C° 0 mm 4 m/s 748 mmHg 37%
    14:00 +22°C° 0 mm 4 m/s 748 mmHg 35%
    15:00 +22°C° 0 mm 4 m/s 748 mmHg 38%
    16:00 +22°C° 0 mm 3 m/s 747 mmHg 42%
    17:00 +23°C° 0 mm 2 m/s 747 mmHg 45%
    18:00 +20°C° 0 mm 2 m/s 747 mmHg 47%
    19:00 +18°C° 0 mm 2 m/s 748 mmHg 50%
    20:00 +18°C° 0 mm 1 m/s 748 mmHg 52%
    21:00 +16°C° 0 mm 1 m/s 748 mmHg 55%
    22:00 +15°C° 0 mm 1 m/s 748 mmHg 58%
    23:00 +15°C° 0 mm 1 m/s 748 mmHg 61%

    29 Avril, Lundi

    Heure Température Précipitation Vent Pression Humidité
    00:00 +13°C° 0 mm 3 m/s 749 mmHg 70%
    01:00 +12°C° 0 mm 4 m/s 749 mmHg 78%
    02:00 +12°C° 0 mm 5 m/s 749 mmHg 86%
    03:00 +10°C° 0 mm 6 m/s 749 mmHg 86%
    04:00 +9°C° 0 mm 6 m/s 750 mmHg 85%
    05:00 +8°C° 0 mm 7 m/s 750 mmHg 84%
    06:00 +8°C° 0 mm 7 m/s 750 mmHg 83%
    07:00 +9°C° 0 mm 7 m/s 751 mmHg 81%
    08:00 +9°C° 0 mm 7 m/s 751 mmHg 79%
    09:00 +9°C° 0 mm 7 m/s 751 mmHg 77%
    10:00 +9°C° 0 mm 7 m/s 751 mmHg 76%
    11:00 +9°C° 0 mm 7 m/s 752 mmHg 75%
    12:00 +9°C° 0 mm 7 m/s 751 mmHg 75%
    13:00 +9°C° 0 mm 7 m/s 751 mmHg 75%
    14:00 +9°C° 0 mm 7 m/s 751 mmHg 74%
    15:00 +8°C° 0 mm 7 m/s 751 mmHg 75%
    16:00 +8°C° 0 mm 7 m/s 751 mmHg 75%
    17:00 +8°C° 0 mm 7 m/s 751 mmHg 75%
    18:00 +6°C° 0 mm 7 m/s 752 mmHg 74%
    19:00 +6°C° 0 mm 7 m/s 752 mmHg 74%
    20:00 +5°C° 0 mm 7 m/s 752 mmHg 74%
    21:00 +5°C° 0 mm 7 m/s 752 mmHg 73%
    22:00 +5°C° 0 mm 7 m/s 752 mmHg 72%
    23:00 +5°C° 0 mm 7 m/s 752 mmHg 71%

    30 Avril, Mardi

    Heure Température Précipitation Vent Pression Humidité
    00:00 +5°C° 0.1 mm 7 m/s 752 mmHg 72%
    01:00 +5°C° 0.1 mm 7 m/s 752 mmHg 74%
    02:00 +5°C° 0.1 mm 7 m/s 752 mmHg 75%
    03:00 +5°C° 0.2 mm 7 m/s 752 mmHg 77%
    04:00 +4°C° 0.2 mm 7 m/s 752 mmHg 79%
    05:00 +4°C° 0.2 mm 7 m/s 752 mmHg 81%
    06:00 +4°C° 0.1 mm 7 m/s 753 mmHg 80%
    07:00 +4°C° 0.1 mm 8 m/s 753 mmHg 80%
    08:00 +4°C° 0.1 mm 8 m/s 753 mmHg 80%
    09:00 +4°C° 0.2 mm 8 m/s 753 mmHg 79%
    10:00 +5°C° 0.2 mm 8 m/s 753 mmHg 78%
    11:00 +5°C° 0.2 mm 8 m/s 753 mmHg 77%
    12:00 +5°C° 0.2 mm 8 m/s 753 mmHg 77%
    13:00 +5°C° 0.2 mm 8 m/s 753 mmHg 77%
    14:00 +5°C° 0.2 mm 7 m/s 753 mmHg 77%
    15:00 +5°C° 0.2 mm 7 m/s 753 mmHg 78%
    16:00 +5°C° 0.2 mm 7 m/s 753 mmHg 78%
    17:00 +5°C° 0.2 mm 7 m/s 752 mmHg 78%
    18:00 +5°C° 0.1 mm 7 m/s 752 mmHg 79%
    19:00 +4°C° 0.1 mm 6 m/s 752 mmHg 80%
    20:00 +4°C° 0.1 mm 6 m/s 752 mmHg 82%
    21:00 +4°C° 0.1 mm 6 m/s 752 mmHg 82%
    22:00 +4°C° 0.1 mm 6 m/s 752 mmHg 82%
    23:00 +3°C° 0.1 mm 7 m/s 752 mmHg 82%
    Voir plus